STARLINK-3860, 52477

Orbit data source: Space-Track

STARLINK-3860, 52477 is a payload satellite owned by SpaceX/Seattle (US) in LEO that was launched on Fri, 06 May 2022 UTC via an FALCON 9 launch vehicle from the Air Force Eastern Test Range (AFETR). Payload-class satellites include a variety of spacecraft equipped with specific instruments for various scientific and technological missions. These include communications satellites like Starlink; space stations such as the ISS; scientific satellites like the Hubble; Earth observation satellites from companies like Planet Labs, Umbra, and HawkEye 360; GPS; miniature CubeSats for education and research; and military/defense satellites.

Loading next visibility...
Identifier
52477, 2022-049AC
Orbit
LEO
Country
Flag of USUS
Related business
Manufacturer
SpaceX/Seattle
Mission
Operational Commercial Communications
Bus & Motor
STARLINK, Unknown motor
Mass
297 kg wet, ~220 kg dry
Launch date (UTC)
2022-05-06 (4 years ago)
Launch vehicle
FALCON 9
Launch site
Air Force Eastern Test Range (AFETR)
Object type
Payload
Rocket body
Debris
Shape & HBR
Box + 1 Pan, 10.1 m
Radar Cross Section
13.562 m², Large (>1 m²)

Expand to show TLE details & history
Last TLE update: 10 hours ago

TLE from 10 hours ago
0 STARLINK-3860
1 52477U 22049AC  26220.00002315  .00032548  00000-0  94044-3 0  9991
2 52477  53.1615  86.7528 0001509  78.1065 121.7786 15.35383374  5757
Epoch: 2026-08-08T00:00Z
TLE epoch observation values (Epoch: 2026-08-08T00:00:02.000Z)
Latitude
-15.97428°
Longitude
-37.4596°
Altitude
464.641 km
Speed
7.634 km/s
True Right ascension
18h 36m 15s
True Declination
-15° 52' 47"
Sunlit
Object was in full shadow at epoch
Visualization orbit readout
Latitude
Unknown
Longitude
Unknown
Altitude
Unknown
Speed
Unknown
Apparent Right ascension
Unknown
Apparent Declination
Unknown
Sunlit
N/A
Visualization observer readout
Local Sidereal Time
00:28:15
Azimuth
Unknown
Elevation
Unknown
Doppler factor
Unknown
Orbital elements
Apogee altitude
461.071 km
Perigee altitude
459.007 km
Semi-major axis
6,838.176 km
Eccentricity
0.00015
Inclination
53.1615°
RAAN
86.7528°
Arg. of periapsis
78.1065°
True anomaly
121.7933°
Mean anomaly
121.7786°
Eccentric anomaly
121.78595°
Mean motion
3.83825 °/min
Orbital period
93.79 mins
BSTAR
0.00094044
Loading maneuver chart data...
Computing Atmospheric mass density...
Loading historical data...
Loading historical data...
Loading historical data...
Loading historical data...
Loading historical data...
Loading historical data...
Loading historical data...

Documentation

Showing up to 5 results
|